sat.trackr.live / text

‹ back to catalog

STARLINK-32593

NORAD 61974 · 2024-210R

PAYLOAD ACTIVE UNKNOWN

§ Identity

Operator
Country
US
Launch date
2024-11-14
Launch site
AFETR
Launch vehicle
Mass (kg)
RCS (m²)

Purposes: comms

External: N2YO · Heavens-Above · Gunter

§ Orbital elements

Epoch: 2026-09-21T01:18:07.084224Z

Period
94.27 min
Inclination
43.0006°
Eccentricity
0.0001304
Mean motion
15.27589834 rev/d
Perigee alt
482.1 km
Apogee alt
483.9 km
Semi-major
6,861.2 km
B*
4.7797e-4
RAAN
156.9165°
Arg perigee
270.4704°
Mean anomaly
89.5998°
Rev number
10,475

§ Raw data

STARLINK-325931 61974U 24210R   26264.05424866  .00012918  00000+0  47797-3 0  99982 61974  43.0006 156.9165 0001304 270.4704  89.5998 15.27589834104754

JSON: /api/v1/satellites/61974 · /tle

For live sub-satellite position, see the globe view (requires WebGL).

§ Visibility from observer

Set your observer location to see the next 7 days of passes ≥ 10°. The values pass through the URL so the page stays shareable.

No JS? Fill the form by hand. The geolocation button needs JavaScript.